Regional Weather Roundup
Issued by NWS

Home | Current Version | Previous Version | Graphics & Text | Print | Product List | Glossary Off
Versions: 1 2 3 4 5 6 7 8 9 10 11 12 13 14 15 16 17 18 19 20 21 22 23 24 25 26 27 28 29 30 31 32 33 34 35 36 37 38 39 40 41 42 43 44 45 46 47 48 49 50

000
ASUS43 KMPX 021610
RWRMN
WEATHER ROUNDUP FOR MINNESOTA
NATIONAL WEATHER SERVICE TWIN CITIES/CHANHASSEN MN
1000 AM CST MON MAR 02 2015


NOTE: "FAIR" INDICATES FEW OR NO CLOUDS BELOW 12,000 FEET WITH NO
SIGNIFICANT WEATHER AND/OR OBSTRUCTIONS TO VISIBILITY. N/A MEANS
CURRENT SKY AND/OR WEATHER CONDITIONS ARE NOT AVAILABLE.

MNZ060>063-068>070-021700-
   Twin Cities Metro

CITY           SKY/WX    TMP DP  RH WIND       PRES   REMARKS
TWIN CITIES    MOSUNNY   18   9  68 SW6       30.50F WCI  10
ST PAUL        SUNNY     20  10  65 VRB3      30.51F
CRYSTAL        SUNNY     21  10  62 SW8       30.48F WCI  11
BLAINE         SUNNY     21  10  63 S9        30.48S WCI  11
LAKEVILLE      SUNNY     18  10  73 S2        30.48F
EDEN PRAIRIE   SUNNY     18  11  74 SE5       30.48F WCI  11
SOUTH ST PAUL  FAIR      21   9  60 S5        30.50F WCI  15
LAKE ELMO      FAIR      21  12  68 SW7       30.51S WCI  13
$$
MNZ001>005-007-008-013>017-022>024-027-028-021700-
   Northwest Minnesota

CITY           SKY/WX    TMP DP  RH WIND       PRES   REMARKS
BEMIDJI        SUNNY     12   9  87 SW6       30.32S WCI   3
HALLOCK        MOSUNNY    5   1  85 S13       30.27S WCI -12
ROSEAU         SUNNY      7   1  78 S10       30.27F WCI  -8
WARROAD        PTSUNNY    7   3  85 S5        30.28S WCI  -2
THIEF RVR FALL SUNNY      7   3  85 S8        30.30F WCI  -6
CROOKSTON      SUNNY     10   5  79 S13       30.33F WCI  -5
FOSSTON        SUNNY     10   7  85 S10       30.32F WCI  -3
DETROIT LAKES  SUNNY     16  12  86 S7        30.34F WCI   6
MOORHEAD       SUNNY     16  10  79 S10       30.34F WCI   3
PARK RAPIDS    SUNNY     15  10  80 SW8       30.34S WCI   4
MAHNOMEN       FAIR      12   9  88 S12       30.33F WCI  -2
$$
MNZ006-009>011-018-025>026-021700-
   North Central Minnesota

CITY           SKY/WX    TMP DP  RH WIND       PRES   REMARKS
BAUDETTE       SUNNY      7   2  80 S7        30.28R WCI  -5
FLAG ISLAND    SUNNY     -2  -8  78 SE10      30.27R WCI -19
INTL FALLS     SUNNY      9   4  80 VRB6      30.30S WCI  -1
WASKISH        SUNNY     14   9  79 CALM      30.32S
BIG FORK       SUNNY     12   7  79 S6        30.33R WCI   3
LONGVILLE      SUNNY     14   7  73 S6        30.37R WCI   5
GRAND RAPIDS   SUNNY     12   7  79 S7        30.35R WCI   2
CRANE LAKE     SUNNY     10   3  72 S3        30.34F
ORR            SUNNY     12   3  67 CALM      30.30R
COOK           SUNNY     12   7  79 SW6       30.33R WCI   3
WALKER         FAIR      17   8  69 SW9       30.34S WCI   5
$$
MNZ012-019>021-037-021700-
   Northeast Minnesota

CITY           SKY/WX    TMP DP  RH WIND       PRES   REMARKS
DULUTH         SUNNY     16   7  67 W6        30.36R WCI   7
ELY            SUNNY     12   3  67 SW6       30.32R WCI   3
HIBBING        SUNNY     13   5  70 S5        30.35R WCI   5
EVELETH        SUNNY     12   9  85 SW7       30.35R WCI   2
DULUTH HARBOR  SUNNY     16   9  73 SW7       30.44R WCI   6
TWO HARBORS    SUNNY     19  10  68 SW7       30.36R WCI  10
SILVER BAY     SUNNY     19   7  58 SW3       30.34S
GRAND MARAIS     N/A     17   8  67 SW12      30.38S WCI   4
G MARAIS ARPRT SUNNY     16   0  48 CALM      30.27R
$$
MNZ029>031-032-039>041-046>048-054>057-064-021700-
   West Central Minnesota

CITY           SKY/WX    TMP DP  RH WIND       PRES   REMARKS
FERGUS FALLS   SUNNY     18   5  57 S12       30.40F WCI   5
WHEATON        SUNNY     19   7  58 S14       30.39S WCI   6
MORRIS         SUNNY     19  10  68 S13       30.38F WCI   7
ALEXANDRIA     SUNNY     16   8  71 S9        30.37F WCI   4
ELBOW LAKE     FAIR      17   8  68 S14       30.36F WCI   3
WADENA         SUNNY     14  10  85 S5        30.36F WCI   6
GLENWOOD       SUNNY     19  12  73 S13       30.39F WCI   7
APPLETON       SUNNY     21  10  63 S7        30.41F WCI  13
BENSON         SUNNY     19  10  68 SW9       30.40F WCI   9
ORTONVILLE     SUNNY     19   7  58 S9        30.38F WCI   9
MADISON        SUNNY     21  10  63 S13       30.40F WCI   9
WILLMAR        FAIR      18  10  73 S3        30.44S
$$
MNZ033>034-036-042>043-049>051-058-059-021700-
   Central Minnesota

CITY           SKY/WX    TMP DP  RH WIND       PRES   REMARKS
ST CLOUD       FAIR      19   9  65 SW10      30.44F WCI   7
SAUK CENTRE    FAIR      19  10  65 S12       30.40F WCI   7
PAYNESVILLE    SUNNY     17   9  72 SE6       30.43F WCI   8
AITKIN         SUNNY     19   9  63 SW9       30.39R WCI   9
PINE RIVER     SUNNY     16   9  73 S7        30.40S WCI   6
BRAINERD       SUNNY     15   7  70 SW8       30.40R WCI   4
STAPLES        SUNNY     18   7  62 SW9       30.38F WCI   6
LONG PRAIRIE   FAIR      18   9  68 S8        30.40F WCI   7
LITTLE FALLS   SUNNY     18   9  68 S3        30.42F
LITCHFIELD     SUNNY     18  10  73 CALM      30.44F
BUFFALO        SUNNY     18  10  73 S3        30.48F
MAPLE LAKE     SUNNY     20  12  70 S6        30.47F WCI  13
$$
MNZ037-044-045-052-053-021700-
   East Central Minnesota

CITY           SKY/WX    TMP DP  RH WIND       PRES   REMARKS
PRINCETON      SUNNY     19  10  68 S8        30.45F WCI   9
MORA           SUNNY     18   9  68 SW7       30.46S WCI   8
CAMBRIDGE      SUNNY     19   9  63 S7        30.45F WCI  10
RUSH CITY      SUNNY     17   9  71 SW7       30.47S WCI   8
MOOSE LAKE     SUNNY     18   9  68 CALM      30.40S
HINCKLEY       FAIR      19  10  68 SW9       30.44S WCI   9
CLOQUET        SUNNY     16   7  67 SW7       30.38R WCI   6
MCGREGOR       SUNNY     18  12  79 SW8       30.41R WCI   7
$$
MNZ071>073-080-081-089-090-097-098-021700-
   Southwest Minnesota

CITY           SKY/WX    TMP DP  RH WIND       PRES   REMARKS
MONTEVIDEO     FAIR      21  10  63 SW9       30.43F WCI  11
GRANITE FALLS  SUNNY     19  11  72 SE9       30.45F WCI   8
CANBY          SUNNY     21  11  64 S12       30.41F WCI   9
MARSHALL       SUNNY     19   9  63 S13       30.43F WCI   7
REDWOOD FALLS  SUNNY     19  11  70 S8        30.45F WCI   9
OLIVIA         SUNNY     19  12  73 S9        30.44S WCI   9
PIPESTONE      MOSUNNY   18  12  79 S12       30.38F WCI   5
WINDOM         SUNNY     18  10  73 S6        30.43F WCI   9
WORTHINGTON    SUNNY     18   9  68 S10       30.44F WCI   6
JACKSON        SUNNY     19  12  73 S9        30.44F WCI   9
TRACY          SUNNY     21  11  64 S10       30.42F WCI  10
SLAYTON        SUNNY     21   8  58 S13       30.40F WCI   8
$$
MNZ065>067-074>077-082>085-091>093-021700-
   South Central Minnesota

CITY           SKY/WX    TMP DP  RH WIND       PRES   REMARKS
MANKATO        SUNNY     16  12  86 SW6       30.48F WCI   7
NEW ULM        SUNNY     18  10  73 S6        30.47F WCI   9
ST JAMES       SUNNY     19  12  73 S5        30.48F WCI  13
FAIRMONT       SUNNY     16  10  79 S8        30.46F WCI   5
GLENCOE        SUNNY     21  14  75 CALM      30.46F
FARIBAULT      SUNNY     16  10  79 CALM      30.47F
OWATONNA       SUNNY     16  10  79 CALM      30.47F
WASECA         SUNNY     14  12  92 S3        30.50S
ALBERT LEA     SUNNY     16  12  86 CALM      30.46F
$$
MNZ078>079-086>088-094>096-021700-
   Southeast Minnesota

CITY           SKY/WX    TMP DP  RH WIND       PRES   REMARKS
ROCHESTER      SUNNY     10   9  95 CALM      30.48R
RED WING       SUNNY     19   9  63 CALM      30.51F
STANTON        SUNNY     18  11  73 CALM      30.49F
DODGE CENTER   SUNNY     10   9  92 CALM      30.46F
WINONA         SUNNY     19  10  68 CALM      30.55R
AUSTIN         SUNNY      9   7  92 SE3       30.47F
PRESTON        SUNNY     12   6  77 CALM      30.48S
$$
ABBREVIATIONS USED IN REMARKS
   TC - TEMPERATURES IN CELSIUS
  WCI - WIND CHILL INDEX
   HX - HEAT INDEX
  VSB - VISIBILITY
$$


USA.gov is the U.S. government's official web portal to all federal, state and local government web resources and services.